NWS Regional Weather Roundup - New England Area

000
ASUS41 KBOX 270010
RWRBOX

REGIONAL WEATHER ROUNDUP
NATIONAL WEATHER SERVICE BOSTON/NORTON MA
800 PM EDT WED JUN 26 2019

NOTE:  "FAIR" INDICATES FEW OR NO CLOUDS BELOW 12,000 FEET WITH NO
SIGNIFICANT WEATHER AND/OR OBSTRUCTIONS TO VISIBILITY.

MAZALL-270100-
EASTERN MASSACHUSETTS

CITY           SKY/WX    TMP DP  RH WIND       PRES   REMARKS
BOSTON         FAIR      63  59  87 SE5       30.04R
6HR MIN TEMP:  63; 6HR MAX TEMP:  72;

BEVERLY        FAIR      64  58  80 SE5       30.02R
LAWRENCE       FAIR      67  61  81 NE8       30.04R
BEDFORD        FAIR      72  62  71 SE6       30.01R
BLUE HILL        N/A     68  64  87 SE7       30.03R
NORWOOD        FAIR      74  63  68 CALM      30.02R
MARSHFIELD     FAIR      64  63  94 CALM      30.04R
PLYMOUTH       FAIR      69  63  81 CALM      30.04R
TAUNTON        FAIR      75  66  73 SE5       30.02R
NEW BEDFORD    FAIR      70  64  81 SW8       30.03R
$$

MAZALL-270100-
CAPE COD AND THE ISLANDS

CITY           SKY/WX    TMP DP  RH WIND       PRES   REMARKS
FALMOUTH       FAIR      68  63  83 CALM      30.04R
HYANNIS        FAIR      67  61  81 NW3       30.03R
CHATHAM        FAIR      65  60  84 NE3       30.04R
PROVINCETOWN   FOG       59  59 100 NW3       30.04R VSB 3/4
NANTUCKET      FAIR      63  61  93 SW5       30.03R
MARTHAS VNYRD  FAIR      67  63  87 SW5       30.03R
$$

MAZALL-270100-
CENTRAL AND WESTERN MASSACHUSETTS

CITY           SKY/WX    TMP DP  RH WIND       PRES   REMARKS
WORCESTER      FAIR      78  61  55 CALM      30.03S
6HR MIN TEMP:  77; 6HR MAX TEMP:  82;

FITCHBURG      FAIR      79  66  64 SE8       30.01R
ORANGE         FAIR      78  64  61 S3        30.00S
SPRINGFIELD    MOCLDY    78  63  58 S6        29.96F
WESTFIELD      FAIR      78  64  61 CALM      29.97S
NORTH ADAMS    CLOUDY    73  65  75 NE5       29.99R THUNDER
PITTSFIELD     MOCLDY    77  59  53 NW5       30.01R
$$

RIZALL-270100-
RHODE ISLAND

CITY           SKY/WX    TMP DP  RH WIND       PRES   REMARKS
PROVIDENCE     FAIR      71  68  90 S10       30.03R
6HR MIN TEMP:  71; 6HR MAX TEMP:  84;

NEWPORT        CLOUDY    69  67  93 S8        30.03S
BLOCK ISLAND   FAIR      69  67  93 S10       30.04R
SMITHFIELD     FAIR      71  67  87 SE5       30.03R
WESTERLY       FAIR      71  69  93 S8        30.04R
$$

CTZALL-270100-
CONNECTICUT

CITY           SKY/WX    TMP DP  RH WIND       PRES   REMARKS
BRADLEY INTL   MOCLDY    84  59  42 S7        29.97S
6HR MIN TEMP:  84; 6HR MAX TEMP:  89;

HARTFORD       FAIR      80  63  55 S5        29.97S
BRIDGEPORT     FAIR      81  61  50 S5        29.99S
DANBURY        FAIR      78  65  63 SW5       30.03R
GROTON         FAIR      72  64  76 SE7       30.02R
NEW HAVEN      FAIR      77  64  64 S3        30.00S
CHESTER        FAIR      77  63  61 S6        30.02S
MERIDEN        FAIR      76  66  71 CALM      29.99S
WILLIMANTIC    FAIR      78  65  63 S9        30.00R
OXFORD         FAIR      78  65  63 CALM      30.03S
$$

MEZ002-015-021-024-NHZ003-005-008-011-012-014-VTZ005-008-270100-
NORTHERN NEW ENGLAND

CITY           SKY/WX    TMP DP  RH WIND       PRES   REMARKS
PORTLAND ME    FAIR      61  56  83 E6        30.05R
6HR MIN TEMP:  61; 6HR MAX TEMP:  74;

BANGOR ME      DRIZZLE   59  58  96 E5        30.08R FOG
CONCORD NH     FAIR      74  66  76 SE7       30.00R
MANCHESTER NH  FAIR      75  66  73 SE10      29.99R
NASHUA NH      FAIR      77  69  76 SE9       30.01R
PORTSMOUTH NH  PTCLDY    63  60  91 E5        30.03R
JAFFREY NH     FAIR      74  66  76 CALM      30.03R
KEENE NH         N/A     71  66  84 CALM      29.99S
BURLINGTON VT  MOCLDY    70  64  81 E6        29.97F
MT. WASHINGTON NOT AVBL
$$

NYZ052-076-270100-
EASTERN NEW YORK

CITY           SKY/WX    TMP DP  RH WIND       PRES   REMARKS
ALBANY         MOCLDY    80  64  58 NW6       29.98R
6HR MIN TEMP:  79; 6HR MAX TEMP:  87; 6HR PCP:  0.05;

NEW YORK CITY  MOCLDY    87  57  35 SW6       29.98F
6HR MIN TEMP:  86; 6HR MAX TEMP:  90;

$$

ANZALL-270100-
MARINE OBSERVATIONS

STATION/POSITION TIME  TEMP    WIND        PRES    VSBY  WAVE
                       AIR SEA DIR/SP/G                  HT/PER
                 (UTC) (F)     (DEG/KT/KT) (MB)    (MI)  (FT/S)
BOSTON BUOY      2350   58 62  110/  6/  8 1016.1R         1/ 6
BUZZARDS BAY     NOT AVBL
NANTUCKET SOUND  2350      67                N/A           1/ 6
MASS BAY-STELLWA 2304   57 59   60/  2/  4 1016.3R   3/16  2/ 5
ISLE OF SHOALS   2300   60      80/  6/  7 1016.0R
S OF BLOCK IS    2330      66                N/A           3/ 6
$$

......................KEY.........................
  SKY/WX - SKY CONDITION/PRESENT WEATHER
  TMP    - TEMPERATURE IN FAHRENHEIT
  DWPT   - DEWPOINT IN FAHRENHEIT
  RH     - RELATIVE HUMIDITY IN PERCENT
  WIND   - DIRECTION AND SPEED IN MPH
  PRES   - MEAN SEA LEVEL PRESSURE IN INCHES OF HG
  WCI    - WIND CHILL INDEX
  VSB    - VISIBILITY IN MILES
  HX     - HEAT INDEX
  TC     - TEMPERATURE IN CELSIUS
  VRB    - VARIABLE WIND DIRECTION
  N/A    - NOT AVAILABLE

NWS BOX Regional Weather Roundup - New England Area